COSMOS 1275 DEB, 42124

Orbit data source: Space-Track

COSMOS 1275 DEB, 42124 is space debris in LEO originally from a launch on Thu, 04 Jun 1981 UTC launched from the Plesetsk Missile And Space Complex (PKMTR). Debris objects in space refer to the collection of defunct objects orbiting the Earth. Examples of debris include non-operational satellites, rocket bodies, and fragments generated from explosions, collisions, or faulty payload assembly.

Loading next visibility...
Identifier
42124, 1981-053QL
Orbit
LEO
Country
Flag of CISCIS
Related business
Manufacturer
Unknown
Mission
Spacecraft
Bus & Motor
Unknown
Mass
Unknown
Launch date (UTC)
1981-06-04 (45 years ago)
Launch vehicle
Unknown
Launch site
Plesetsk Missile And Space Complex (PKMTR)
Object type
Payload
Rocket body
Debris
Shape & HBR
Unknown shape, 0.1 m
Radar Cross Section
Medium (>0.1 m² and <1 m²)

Expand to show TLE details & history
Last TLE update: 2 days ago

TLE from 2 days ago
0 COSMOS 1275 DEB
1 42124U 81053QL  26236.13053764  .00000991  00000-0  10845-2 0  9997
2 42124  83.0070 281.7764 0125222  78.6800 311.5099 13.68126518635251
Epoch: 2026-08-24T03:07Z
TLE epoch observation values (Epoch: 2026-08-24T03:07:58.452Z)
Latitude
28.91299°
Longitude
-93.76945°
Altitude
949.237 km
Speed
7.41 km/s
True Right ascension
19h 02m 33s
True Declination
28° 46' 17"
Sunlit
Object was in partial shadow at epoch
Visualization orbit readout
Latitude
Unknown
Longitude
Unknown
Altitude
Unknown
Speed
Unknown
Apparent Right ascension
Unknown
Apparent Declination
Unknown
Sunlit
N/A
Visualization observer readout
Local Sidereal Time
00:05:38
Azimuth
Unknown
Elevation
Unknown
Doppler factor
Unknown
Orbital elements
Apogee altitude
1,095.894 km
Perigee altitude
911.026 km
Semi-major axis
7,381.597 km
Eccentricity
0.01252
Inclination
83.007°
RAAN
281.7764°
Arg. of periapsis
78.68°
True anomaly
310.42416°
Mean anomaly
311.5099°
Eccentric anomaly
310.96816°
Mean motion
3.4223 °/min
Orbital period
105.19 mins
BSTAR
0.0010845
Loading maneuver chart data...
Computing Atmospheric mass density...
Loading historical data...
Loading historical data...
Loading historical data...
Loading historical data...
Loading historical data...
Loading historical data...
Loading historical data...

Documentation

Showing up to 5 results
|